Date String (YYYY-MM-DD hh:mm:ss) UTC,Instrument flags,absolute air pressure of the measurement (hPa),sample flow rate (lpm),inlet stack bypass flow (lpm),air temperature of the measurement (°C),ambient temperature measured by the external sensor (°C),aerosol sample conditioner tube jacket temperature (°C),OPC LED temperature (°C),internal box temperature (°C),relative humidity of the measurement (%),span deviation,mass concentration of particles derived from Lorenz-Mie calculation of OPC scattering (μg/m³),mass concentration of particles derived from Lorenz-Mie calculation of OPC scattering (μg/m³),mass concentration of particles derived from Lorenz-Mie calculation of OPC scattering (μg/m³)
DateTimeUTC,F1_M11,P_M11,Q1_M11,Q2_M11,T1_M11,T2_M11,T3_M11,T4_M11,T5_M11,U1_M11,ZSPAN_M11,X2_M11,X0_M11,X1_M11
2023-11-30 01:00:00,SystemResetWarning,0822.0,5.01,000.00,024.7,023.7,000.0,033.0,026.0,7.1,0000.0,0005.78,0013.07,0005.28
2023-11-30 01:01:00,SystemResetWarning,0822.1,5.01,000.00,024.7,023.7,000.0,033.0,026.0,7.1,0000.0,0005.84,0013.12,0005.33
2023-11-30 01:02:00,SystemResetWarning,0822.1,5.00,000.00,024.7,023.7,000.0,033.0,026.0,7.0,0000.0,0005.88,0013.08,0005.38
2023-11-30 01:03:00,SystemResetWarning,0822.1,4.99,000.00,024.7,023.7,000.0,033.0,026.0,7.0,0000.0,0005.94,0012.16,0005.43
2023-11-30 01:04:00,SystemResetWarning,0822.2,4.99,000.00,024.7,023.7,000.0,033.0,026.0,7.0,0000.0,0005.98,0011.45,0005.48
2023-11-30 01:05:00,SystemResetWarning,0822.2,5.01,000.00,024.7,023.7,000.0,033.0,026.0,7.0,0000.0,0006.03,0011.52,0005.50
2023-11-30 01:06:00,SystemResetWarning,0822.2,5.01,000.00,024.7,023.7,000.0,033.0,025.9,6.9,0000.0,0006.14,0011.80,0005.55
2023-11-30 01:07:00,SystemResetWarning,0822.2,5.00,000.00,024.7,023.7,000.0,033.0,025.9,6.9,0000.0,0006.31,0012.51,0005.66
2023-11-30 01:08:00,SystemResetWarning,0822.2,4.99,000.00,024.7,023.7,000.0,033.0,025.9,6.8,0000.0,0006.44,0013.14,0005.76
2023-11-30 01:09:00,SystemResetWarning,0822.2,5.00,000.00,024.7,023.7,000.0,033.0,026.0,6.8,0000.0,0006.48,0012.98,0005.81
2023-11-30 01:10:00,SystemResetWarning,0822.2,5.01,000.00,024.7,023.7,000.0,033.0,026.0,6.7,0000.0,0006.51,0013.02,0005.82
2023-11-30 01:11:00,SystemResetWarning,0822.2,5.01,000.00,024.7,023.7,000.0,033.0,026.0,6.8,0000.0,0006.51,0013.15,0005.81
2023-11-30 01:12:00,SystemResetWarning,0822.2,5.00,000.00,024.7,023.7,000.0,033.0,025.9,6.8,0000.0,0006.43,0013.19,0005.75
2023-11-30 01:13:00,SystemResetWarning,0822.1,4.99,000.00,024.7,023.7,000.0,033.0,026.0,6.8,0000.0,0006.38,0013.10,0005.70
2023-11-30 01:14:00,SystemResetWarning,0822.2,4.99,000.00,024.7,023.7,000.0,033.0,025.9,6.8,0000.0,0006.30,0012.25,0005.63
2023-11-30 01:15:00,SystemResetWarning,0822.3,5.01,000.00,024.7,023.7,000.0,033.0,025.9,6.9,0000.0,0006.17,0011.84,0005.52
2023-11-30 01:16:00,SystemResetWarning,0822.2,5.01,000.00,024.7,023.7,000.0,033.0,025.9,6.9,0000.0,0006.05,0011.94,0005.40
2023-11-30 01:17:00,SystemResetWarning,0822.2,5.00,000.00,024.7,023.7,000.0,033.0,025.9,7.0,0000.0,0005.89,0012.91,0005.28
2023-11-30 01:18:00,SystemResetWarning,0822.2,4.98,000.00,024.7,023.7,000.0,033.0,025.9,6.9,0000.0,0005.69,0012.86,0005.10
2023-11-30 01:19:00,SystemResetWarning,0822.3,5.01,000.00,024.7,023.7,000.0,033.0,025.9,7.0,0000.0,0005.49,0011.92,0004.93
2023-11-30 01:20:00,SystemResetWarning,0822.2,5.01,000.00,024.7,023.7,000.0,033.0,025.9,7.1,0000.0,0005.32,0011.56,0004.75
2023-11-30 01:21:00,SystemResetWarning,0822.2,4.99,000.00,024.7,023.7,000.0,033.0,025.9,7.1,0000.0,0005.13,0011.29,0004.58
2023-11-30 01:22:00,SystemResetWarning,0822.2,4.99,000.00,024.7,023.7,000.0,033.0,025.9,7.1,0000.0,0004.95,0010.88,0004.41
2023-11-30 01:23:00,SystemResetWarning,0822.2,5.00,000.00,024.7,023.6,000.0,033.0,025.9,7.2,0000.0,0004.81,0010.53,0004.27
2023-11-30 01:24:00,SystemResetWarning,0822.2,5.01,000.00,024.6,023.6,000.0,033.0,025.9,7.2,0000.0,0004.67,0010.37,0004.13
2023-11-30 01:25:00,SystemResetWarning,0822.2,5.01,000.00,024.6,023.6,000.0,033.0,025.9,7.2,0000.0,0004.56,0010.42,0004.01
2023-11-30 01:26:00,SystemResetWarning,0822.3,5.00,000.00,024.6,023.6,000.0,033.0,025.9,7.3,0000.0,0004.54,0010.70,0003.92
2023-11-30 01:27:00,SystemResetWarning,0822.3,4.99,000.00,024.6,023.6,000.0,033.0,025.9,7.3,0000.0,0004.46,0010.36,0003.85
2023-11-30 01:28:00,SystemResetWarning,0822.3,4.98,000.00,024.6,023.6,000.0,033.0,025.9,7.4,0000.0,0004.37,0008.93,0003.79
2023-11-30 01:29:00,SystemResetWarning,0822.3,5.00,000.00,024.6,023.6,000.0,033.0,025.9,7.4,0000.0,0004.31,0008.16,0003.76
2023-11-30 01:30:00,SystemResetWarning,0822.4,5.00,000.00,024.6,023.6,000.0,033.0,025.9,7.4,0000.0,0004.29,0008.40,0003.74
2023-11-30 01:31:00,SystemResetWarning,0822.4,5.00,000.00,024.6,023.6,000.0,032.9,025.9,7.3,0000.0,0004.32,0008.57,0003.74
2023-11-30 01:32:00,SystemResetWarning,0822.4,5.00,000.00,024.6,023.6,000.0,032.9,025.9,7.0,0000.0,0004.31,0008.40,0003.74
2023-11-30 01:33:00,SystemResetWarning,0822.3,5.00,000.00,024.6,023.6,000.0,032.9,025.9,7.2,0000.0,0004.32,0008.38,0003.75
2023-11-30 01:34:00,SystemResetWarning,0822.4,5.00,000.00,024.6,023.6,000.0,032.9,025.9,7.2,0000.0,0004.31,0008.39,0003.74
2023-11-30 01:35:00,SystemResetWarning,0822.4,5.00,000.00,024.6,023.6,000.0,032.9,025.9,7.3,0000.0,0004.32,0008.40,0003.74
2023-11-30 01:36:00,SystemResetWarning,0822.4,5.00,000.00,024.6,023.6,000.0,032.9,025.8,7.3,0000.0,0004.27,0008.28,0003.73
2023-11-30 01:37:00,SystemResetWarning,0822.4,5.00,000.00,024.6,023.6,000.0,032.9,025.8,7.3,0000.0,0004.20,0008.25,0003.74
2023-11-30 01:38:00,SystemResetWarning,0822.4,4.99,000.00,024.6,023.6,000.0,032.9,025.8,7.2,0000.0,0004.20,0008.54,0003.75
2023-11-30 01:39:00,SystemResetWarning,0822.4,4.99,000.00,024.6,023.6,000.0,032.9,025.7,7.1,0000.0,0004.20,0008.68,0003.75
2023-11-30 01:40:00,SystemResetWarning,0822.4,5.00,000.00,024.6,023.6,000.0,032.9,025.7,7.0,0000.0,0004.20,0008.71,0003.74
2023-11-30 01:41:00,SystemResetWarning,0822.4,5.00,000.00,024.5,023.5,000.0,032.9,025.7,7.0,0000.0,0004.19,0008.39,0003.74
2023-11-30 01:42:00,SystemResetWarning,0822.4,5.00,000.00,024.5,023.5,000.0,032.9,025.7,7.0,0000.0,0004.15,0008.10,0003.72
2023-11-30 01:43:00,SystemResetWarning,0822.6,5.00,000.00,024.5,023.5,000.0,032.9,025.7,7.0,0000.0,0004.17,0008.19,0003.72
2023-11-30 01:44:00,SystemResetWarning,0822.5,5.00,000.00,024.5,023.5,000.0,032.9,025.7,7.0,0000.0,0004.19,0008.98,0003.74
2023-11-30 01:45:00,SystemResetWarning,0822.5,5.00,000.00,024.5,023.5,000.0,032.9,025.7,6.8,0000.0,0004.24,0009.14,0003.77
2023-11-30 01:46:00,SystemResetWarning,0822.5,5.00,000.00,024.5,023.5,000.0,032.9,025.7,6.9,0000.0,0004.23,0009.14,0003.78
2023-11-30 01:47:00,SystemResetWarning,0822.4,5.00,000.00,024.5,023.5,000.0,032.9,025.8,6.9,0000.0,0004.26,0009.26,0003.81
2023-11-30 01:48:00,SystemResetWarning,0822.6,4.99,000.00,024.5,023.5,000.0,032.9,025.7,6.8,0000.0,0004.29,0009.76,0003.82
2023-11-30 01:49:00,SystemResetWarning,0822.6,4.99,000.00,024.5,023.5,000.0,032.9,025.7,6.8,0000.0,0004.34,0011.31,0003.81
2023-11-30 01:50:00,SystemResetWarning,0822.8,5.00,000.00,024.5,023.5,000.0,032.9,025.8,6.8,0000.0,0004.30,0011.29,0003.79
2023-11-30 01:51:00,SystemResetWarning,0823.0,5.00,000.00,024.5,023.5,000.0,032.9,025.8,6.7,0000.0,0004.32,0011.33,0003.79
2023-11-30 01:52:00,SystemResetWarning,0823.1,5.00,000.00,024.5,023.5,000.0,032.9,025.8,6.8,0000.0,0004.30,0011.28,0003.78
2023-11-30 01:53:00,SystemResetWarning,0823.0,5.00,000.00,024.5,023.5,000.0,032.8,025.7,6.8,0000.0,0004.27,0011.36,0003.78
2023-11-30 01:54:00,SystemResetWarning,0823.1,5.00,000.00,024.5,023.5,000.0,032.8,025.7,6.8,0000.0,0004.27,0011.77,0003.79
2023-11-30 01:55:00,SystemResetWarning,0823.1,5.00,000.00,024.5,023.5,000.0,032.8,025.7,6.8,0000.0,0004.24,0010.92,0003.79
2023-11-30 01:56:00,SystemResetWarning,0823.1,5.01,000.00,024.5,023.5,000.0,032.8,025.7,6.9,0000.0,0004.22,0010.80,0003.79
2023-11-30 01:57:00,SystemResetWarning,0822.9,5.00,000.00,024.5,023.5,000.0,032.8,025.7,6.9,0000.0,0004.24,0011.23,0003.81
2023-11-30 01:58:00,SystemResetWarning,0822.6,4.99,000.00,024.5,023.5,000.0,032.8,025.7,6.8,0000.0,0004.27,0011.39,0003.83
2023-11-30 01:59:00,SystemResetWarning,0822.6,5.00,000.00,024.5,023.5,000.0,032.8,025.7,6.7,0000.0,0004.28,0010.54,0003.84
